Flag for Poland Weather past 2 weeks in Opole, Poland

Now
48 °F

Clear.


Feels Like: 48 °F
Forecast: 52 / 60 °F
Wind: 2 mph from North

Location: Wroclaw Ii

Current Time: Sep 5, 2015 at 7:50:03 AM

Latest Report: Sep 5, 2015 at 7:00 AM


Visibility: 10 mi

Pressure: 29.89 "Hg

Humidity: 87%

Dew point: 45 °F

Location of OpoleLocation

Historic Weather in Opole — Graph

°F

Opole temperature yesterday

Maximum temperature yesterday: 73 °F (at 4:00 PM)
Minimum temperature yesterday: 54 °F (at 11:30 PM)
Average temperature yesterday: 63 °F

Past Weeks' High & Low Weather Summary

 TemperatureHumidityPressure
High99 °F (Aug 31, 2:30 PM)94% (Aug 22, 8:00 PM)30.33 "Hg (Aug 22, 8:00 PM)
Low46 °F (Sep 5, 6:30 AM)20% (Aug 27, 3:00 PM)29.68 "Hg (Sep 1, 7:30 PM)
Average70 °F60%30.03 "Hg
* Reported Aug 21 7:00 AM — Sep 5 7:00 AM, Opole, Weather by CustomWeather, © 2015

Note: Actual official high and low records may vary slightly from our data, if they occured in-between our weather recording intervals... More about our weather records

Advertising

Opole weather history for previous 24 hours

 ConditionsComfort  
Time TempWeatherWind HumidityBarometerVisibility
7:00 AM
Sat, Sep 5
48 °FClear.2 mph87%29.89 "Hg10 mi
6:30 AM46 °FClear.2 mph87%29.89 "Hg10 mi
6:00 AM48 °FClear.2 mph87%29.89 "Hg10 mi
5:30 AM48 °FClear.2 mph94%29.89 "Hg10 mi
5:00 AM50 °FPassing clouds.3 mph88%29.92 "HgN/A
4:30 AM50 °FClear.6 mph88%29.92 "Hg10 mi
4:00 AM50 °FFog.7 mph88%29.92 "HgN/A
3:30 AM50 °FClear.1 mph88%29.92 "Hg10 mi
3:00 AM50 °FFog.1 mph88%29.92 "HgN/A
2:30 AM50 °FFog.1 mph88%29.95 "HgN/A
2:00 AM50 °FFog.2 mph94%29.95 "HgN/A
1:30 AM52 °FFog.2 mph88%29.95 "HgN/A
1:00 AM52 °FCool.2 mph88%29.95 "HgN/A
12:30 AM52 °FFog.2 mph88%29.95 "HgN/A
12:00 AM54 °FFog.2 mph88%29.95 "HgN/A
11:30 PM
Fri, Sep 4
54 °FFog.1 mph88%29.95 "HgN/A
11:00 PM55 °FFog.1 mph88%29.95 "HgN/A
10:30 PM57 °FClear.2 mph88%29.95 "Hg10 mi
10:00 PM59 °FPassing clouds.2 mph88%29.95 "HgN/A
9:30 PM61 °FSprinkles. Passing clouds.3 mph83%29.95 "HgN/A
9:00 PM59 °FPassing clouds.1 mph88%29.95 "HgN/A
8:30 PM59 °FPassing clouds.2 mph88%29.95 "HgN/A
8:00 PM63 °FSprinkles. Scattered clouds.7 mph73%29.95 "HgN/A
7:30 PM66 °FSunny.2 mph49%29.92 "Hg10 mi
7:00 PM68 °FSunny.2 mph43%29.92 "Hg10 mi
6:30 PM72 °FSunny.6 mph33%29.92 "Hg10 mi
6:00 PM73 °FPassing clouds.6 mph31%29.92 "HgN/A
5:30 PM73 °FPassing clouds.6 mph31%29.92 "HgN/A
5:00 PM73 °FSunny.2 mph33%29.92 "Hg10 mi
4:30 PM72 °FPassing clouds.3 mph33%29.95 "HgN/A
4:00 PM73 °FSunny.6 mph31%29.95 "Hg10 mi
3:30 PM72 °FPassing clouds.5 mph38%29.95 "HgN/A
3:00 PM70 °FPassing clouds.7 mph46%29.98 "HgN/A
2:30 PM70 °FPassing clouds.6 mph50%29.98 "HgN/A
2:00 PM70 °FScattered clouds.8 mph50%29.98 "HgN/A
1:30 PM70 °FScattered clouds.8 mph46%29.98 "HgN/A
1:00 PM70 °FScattered clouds.12 mph53%29.98 "HgN/A
12:30 PM68 °FPartly sunny.8 mph56%29.98 "HgN/A
12:00 PM66 °FPartly sunny.7 mph68%29.98 "HgN/A
11:30 AM64 °FBroken clouds.8 mph73%29.98 "HgN/A
11:00 AM63 °FBroken clouds.9 mph83%29.98 "HgN/A
10:30 AM61 °FBroken clouds.8 mph88%29.98 "HgN/A
10:00 AM61 °FBroken clouds.8 mph88%29.95 "Hg5 mi
9:30 AM59 °FBroken clouds.5 mph88%29.95 "Hg5 mi
9:00 AM59 °FBroken clouds.6 mph82%29.95 "Hg4 mi
8:30 AM59 °FLight rain. Broken clouds.8 mph88%29.95 "Hg4 mi
8:00 AM57 °FLight rain. Scattered clouds.8 mph94%29.95 "Hg5 mi
7:30 AM57 °FLight rain. Scattered clouds.10 mph94%29.95 "Hg4 mi
7:00 AM57 °FLight rain. Passing clouds.10 mph88%29.92 "HgN/A
Weather by CustomWeather, © 2015

See weather overviewHow to use our weather pages